Showing default

FLOCK 4Q 36, 58274

Orbit data source: Space-Track

FLOCK 4Q 36, 58274 is a payload satellite owned by Planet (US) in SSO that was launched on Sat, 11 Nov 2023 UTC via an FALCON 9 launch vehicle from the Air Force Western Test Range (AFWTR). Payload-class satellites include a variety of spacecraft equipped with specific instruments for various scientific and technological missions. These include communications satellites like Starlink; space stations such as the ISS; scientific satellites like the Hubble; Earth observation satellites from companies like Planet Labs, Umbra, and HawkEye 360; GPS; miniature CubeSats for education and research; and military/defense satellites.

Loading next visibility...
Identifier
58274, 2023-174U
Orbit
SSO
Country
Flag of USUS
Related business
Manufacturer
Planet
Mission
Non-operational Commercial Imaging
Bus & Motor
CUBESAT 3U, Unknown motor
Mass
5.7 kg wet, 5.7 kg dry
Launch date (UTC)
2023-11-11 (3 years ago)
Launch vehicle
FALCON 9
Launch site
Air Force Western Test Range (AFWTR)
Object type
Payload
Rocket body
Debris
Shape & HBR
Box + 2 Pan, 1.0 m
Radar Cross Section
0.072 m², Medium (>0.1 m² and < 1m²)

Expand to show TLE details & history
Last TLE update: 3 days ago

TLE from 3 days ago
0 FLOCK 4Q 36
1 58274U 23174U   26174.22691589  .00027384  00000-0  35485-3 0  9997
2 58274  97.3855 266.8703 0006543 128.0720 232.1127 15.58826855146771
Epoch: 2026-06-23T05:26Z
TLE epoch observation values (Epoch: 2026-06-23T05:26:45.532Z)
Latitude
-0.00008°
Longitude
-86.22092°
Altitude
396.917 km
Speed
7.671 km/s
True Right ascension
17h 47m 28s
True Declination
0° 00' 00"
Sunlit
Object was in full shadow at epoch
Visualization orbit readout
Latitude
Unknown
Longitude
Unknown
Altitude
Unknown
Speed
Unknown
Apparent Right ascension
Unknown
Apparent Declination
Unknown
Sunlit
N/A
Visualization observer readout
Local Sidereal Time
08:35:11
Azimuth
Unknown
Elevation
Unknown
Doppler factor
Unknown
Orbital elements
Apogee altitude
392.392 km
Perigee altitude
383.538 km
Semi-major axis
6,766.102 km
Eccentricity
0.00065
Inclination
97.3855°
RAAN
266.8703°
Arg. of periapsis
128.072°
True anomaly
232.05356°
Mean anomaly
232.1127°
Eccentric anomaly
232.08313°
Mean motion
3.89974 °/min
Orbital period
92.31 mins
BSTAR
0.00035485
Loading maneuver chart data...
Computing Atmospheric mass density...
Loading historical data...
Loading historical data...
Loading historical data...
Loading historical data...
Loading historical data...
Loading historical data...
Loading historical data...

Documentation

Showing up to 5 results
|